[[{"header":{"parameterUnit":"m.s-1","parameterCategory":1,"la1":30.2991,"la2":30.254,"lo1":-89.0895,"lo2":-89.0444,"dy":0.0017,"dx":0.0017,"nx":28,"ny":28,"refTime":"2025-04-05T09:00:00:Z","depth":0,"parameterNumber":2,"parameterNumberName":"U-component_of_WINDS"},"data":[0,0,0,0,0,0,0,0,0,0,0,0,0,0,0,0,0,0,0,0,0,0,0,0,0,0,0,0,0,0,0,0,0,0,0,0,0,0,0,0,0,0,0,0,0,0,0,0,0,0,0,0,0,0,0,0,0,0,-5.1016,-5.1019,0,-5.1261,-5.1264,-5.1266,-5.1344,-5.1343,-5.1342,-5.1341,-5.1593,-5.1601,-5.1609,0,0,0,0,0,0,0,0,0,0,0,0,0,-5.0619,-5.0626,-5.1016,-5.1019,-5.1022,-5.126,-5.1264,-5.1267,-5.1345,-5.1343,-5.1342,-5.1341,-5.1591,-5.16,-5.1609,0,0,0,0,0,0,0,0,0,0,0,0,0,-5.082,-5.0628,-5.1015,-5.1089,-5.1098,-5.126,-5.1264,-5.1268,-5.1345,-5.1343,-5.1342,-5.134,-5.1588,-5.1599,-5.1611,-5.1716,0,0,-5.1646,-5.1651,0,0,0,0,0,0,0,0,-5.0809,-5.0835,-5.1075,-5.1085,-5.1095,-5.127,-5.1216,-5.1418,-5.1345,-5.1251,-5.1341,-5.1339,-5.1487,-5.1507,-5.1557,-5.1728,-5.1739,-5.1647,-5.1654,-5.1659,-5.1662,0,0,0,0,0,0,0,-5.0795,-5.0825,-5.1113,-5.1079,-5.1091,-5.1112,-5.1138,-5.1255,-5.1376,-5.1259,-5.1266,-5.1294,-5.1492,-5.1545,-5.1563,-5.1743,-5.1647,-5.1657,-5.1664,-5.1669,-5.2015,-5.2017,0,0,0,0,0,0,-5.0768,-5.0812,-5.1105,-5.112,-5.0945,-5.112,-5.115,-5.1216,-5.1375,-5.1397,-5.1295,-5.1296,-5.1526,-5.155,-5.1572,-5.1707,-5.1659,-5.167,-5.1677,-5.2013,-5.2015,-5.2018,0,0,0,0,0,0,-5.0759,-5.0793,-5.1095,-5.0968,-5.1008,-5.1129,-5.1202,-5.1222,-5.1275,-5.1402,-5.1424,-5.1326,-5.1526,-5.1556,-5.168,-5.1717,-5.1675,-5.1686,-5.201,-5.2013,-5.2016,-5.1976,0,0,0,0,0,0,-5.0747,-5.0789,-5.083,-5.0968,-5.1015,-5.1197,-5.1204,-5.1228,-5.1294,-5.1299,-5.1437,-5.1458,-5.1527,-5.1662,-5.1692,-5.1732,-5.1695,-5.2007,-5.2011,-5.2015,-5.1975,-5.1977,-5.198,0,0,0,0,0,-5.0733,-5.0809,-5.0831,-5.0866,-5.1068,-5.1199,-5.1226,-5.1303,-5.1297,-5.1339,-5.1421,-5.1454,-5.1709,-5.1674,-5.1708,-5.1752,-5.2005,-5.201,-5.2015,-5.1973,-5.1977,-5.198,0,0,0,0,0,0,-5.0671,-5.0828,-5.0855,-5.0978,-5.1075,-5.1212,-5.1267,-5.1304,-5.1405,-5.1404,-5.1496,-5.1527,-5.1644,-5.1712,-5.1671,-5.1864,-5.1858,-5.187,-5.1815,-5.182,-5.1822,-5.1803,-5.1705,0,0,0,0,0,-5.0672,-5.0765,-5.0898,-5.0994,-5.1041,-5.1146,-5.1206,-5.1257,-5.1361,-5.1403,-5.1494,-5.1594,-5.1697,-5.1763,-5.1864,-5.1986,-5.2017,-5.2033,-5.2036,-5.2038,-5.2046,-5.2116,-5.2125,-5.2034,-5.2034,-5.2034,0,0,-5.0675,-5.0772,-5.0825,-5.0984,-5.1065,-5.116,-5.118,-5.1279,-5.1351,-5.1418,-5.154,-5.1611,-5.173,-5.1853,-5.1912,-5.1912,-5.2079,-5.2044,-5.2044,-5.2052,-5.2122,-5.213,-5.2138,-5.2037,-5.2037,-5.2036,0,0,-5.0727,-5.081,-5.0899,-5.098,-5.1103,-5.1173,-5.1194,-5.1327,-5.1376,-5.1501,-5.1553,-5.1641,-5.1816,-5.1898,-5.1963,-5.205,-5.2084,-5.2081,-5.2094,-5.2161,-5.2168,-5.2175,-5.2205,-5.2215,-5.2089,-5.2089,-5.2089,0,-5.0715,-5.0859,-5.0941,-5.1038,-5.1107,-5.1172,-5.1264,-5.1339,-5.1488,-5.1535,-5.1534,-5.1755,-5.184,-5.1983,-5.2005,-5.2055,-5.2083,-5.2064,-5.216,-5.2168,-5.2176,-5.2206,-5.2217,-5.2088,-5.2088,-5.2088,-5.2088,0,-5.0838,-5.0938,-5.0995,-5.1137,-5.1213,-5.1307,-5.1403,-5.1471,-5.1516,-5.1586,-5.1713,-5.1817,-5.1941,-5.198,-5.2025,-5.2131,-5.2127,-5.2142,-5.2138,-5.2181,-5.2211,-5.2223,-5.2086,-5.2086,-5.2087,-5.2087,0,0,-5.0856,-5.1043,-5.1063,-5.1129,-5.127,-5.1349,-5.1447,-5.1568,-5.1624,-5.1726,-5.181,-5.1958,-5.1974,-5.2047,-5.2103,-5.2162,-5.2224,-5.217,-5.2175,-5.2176,-5.2347,-5.2333,-5.2345,-5.2249,-5.2251,-5.2253,-5.2336,0,-5.0926,-5.1101,-5.1179,-5.132,-5.1413,-5.1479,-5.1564,-5.1661,-5.173,-5.182,-5.1898,-5.2,-5.2013,-5.2058,-5.212,-5.2203,-5.2259,-5.2199,-5.2328,-5.2332,-5.2294,-5.2361,-5.2346,-5.2419,-5.2349,-5.2351,-5.2352,0,-5.103,-5.1131,-5.1281,-5.1412,-5.1455,-5.153,-5.1648,-5.1734,-5.1845,-5.1892,-5.1974,-5.2028,-5.2135,-5.2125,-5.2274,-5.2231,-5.2289,-5.2339,-5.2343,-5.2357,-5.2343,-5.2374,-5.2445,-5.2455,-5.2372,-5.237,-5.2369,0,-5.1026,-5.1201,-5.1314,-5.1368,-5.1524,-5.1576,-5.1643,-5.1753,-5.1822,-5.1926,-5.1971,-5.2086,-5.2149,-5.2238,-5.2321,-5.2307,-5.2462,-5.246,-5.2503,-5.2501,-5.2531,-5.2528,-5.261,-5.2571,-5.2571,-5.2571,-5.2571,0,-5.1095,-5.1184,-5.1314,-5.1383,-5.1486,-5.1575,-5.1675,-5.1747,-5.1845,-5.193,-5.1995,-5.2074,-5.218,-5.2273,-5.234,-5.2453,-5.2481,-5.2522,-5.2538,-5.2515,-5.251,-5.2553,-5.2549,-5.2574,-5.2573,-5.2573,-5.2572,0,-5.1107,-5.1198,-5.1325,-5.1463,-5.15,-5.1569,-5.1687,-5.1758,-5.1831,-5.1938,-5.1969,-5.2084,-5.2197,-5.229,-5.2438,-5.2483,-5.26,-5.262,-5.2562,-5.257,-5.2608,-5.2603,-5.272,-5.274,-5.2688,-5.2689,-5.2689,0,-5.1144,-5.1214,-5.1359,-5.1421,-5.1487,-5.1585,-5.1656,-5.1747,-5.1818,-5.1952,-5.2006,-5.2124,-5.2222,-5.24,-5.2497,-5.2611,-5.2634,-5.2667,-5.2651,-5.2626,-5.2633,-5.2627,-5.2634,-5.2667,-5.2667,-5.2667,-5.2668,0,-5.1199,-5.1241,-5.1339,-5.1454,-5.1536,-5.163,-5.1727,-5.1774,-5.1884,-5.1961,-5.2076,-5.2153,-5.2305,-5.2421,-5.2545,-5.2617,-5.2661,-5.2672,-5.2688,-5.2664,-5.2627,-5.2647,-5.2564,-5.2668,-5.2668,-5.2668,-5.2668,-5.2668,-5.1225,-5.129,-5.1403,-5.151,-5.1593,-5.1682,-5.1754,-5.1837,-5.1935,-5.2065,-5.2114,-5.2233,-5.2345,-5.2517,-5.2589,-5.2684,-5.2689,-5.2713,-5.2718,-5.2722,-5.2719,-5.2614,-5.2708,-5.2708,-5.2708,-5.2708,-5.2708,0,-5.1283,-5.1359,-5.1457,-5.1589,-5.1675,-5.1709,-5.1818,-5.1887,-5.199,-5.2091,-5.2187,-5.2321,-5.2435,-5.2542,-5.2661,-5.2716,-5.274,-5.2744,-5.274,-5.2756,-5.2708,-5.2681,-5.2724,-5.2724,-5.2724,-5.2724,-5.2724,-5.2724,-5.1322,-5.1435,-5.149,-5.1645,-5.1722,-5.1837,-5.1897,-5.198,-5.2061,-5.2207,-5.2301,-5.237,-5.2474,-5.2602,-5.2708,-5.2737,-5.2777,-5.2776,-5.281,-5.2762,-5.2759,-5.2757,-5.2732,-5.2785,-5.2785,-5.2851,-5.2851,-5.2852]},{"header":{"parameterUnit":"m.s-1","parameterCategory":1,"la1":30.2991,"la2":30.254,"lo1":-89.0895,"lo2":-89.0444,"dy":0.0017,"dx":0.0017,"nx":28,"ny":28,"refTime":"2025-04-05T09:00:00:Z","depth":0,"parameterNumber":3,"parameterNumberName":"V-component_of_WINDS"},"data":[0,0,0,0,0,0,0,0,0,0,0,0,0,0,0,0,0,0,0,0,0,0,0,0,0,0,0,0,0,0,0,0,0,0,0,0,0,0,0,0,0,0,0,0,0,0,0,0,0,0,0,0,0,0,0,0,0,0,5.9625,5.9625,0,5.9696,5.9697,5.9698,5.9676,5.9675,5.9673,5.9672,5.9744,5.9748,5.9751,0,0,0,0,0,0,0,0,0,0,0,0,0,5.9472,5.9475,5.9625,5.9625,5.9626,5.9696,5.9697,5.9698,5.9676,5.9675,5.9673,5.9671,5.9743,5.9747,5.9751,0,0,0,0,0,0,0,0,0,0,0,0,0,5.954,5.9476,5.9624,5.9624,5.9625,5.9696,5.9697,5.9698,5.9677,5.9674,5.9672,5.967,5.9742,5.9747,5.9752,5.9827,0,0,5.9767,5.9769,0,0,0,0,0,0,0,0,5.9536,5.9546,5.9623,5.9624,5.9625,5.9675,5.967,5.9741,5.9677,5.9657,5.9672,5.9669,5.9723,5.9729,5.9748,5.9831,5.9834,5.9768,5.9771,5.9773,5.9774,0,0,0,0,0,0,0,5.9532,5.9543,5.9653,5.9624,5.9626,5.9621,5.9628,5.9683,5.9702,5.9659,5.9657,5.9666,5.9723,5.9743,5.9749,5.9835,5.9767,5.9772,5.9775,5.9777,5.9987,5.9989,0,0,0,0,0,0,5.9526,5.9539,5.965,5.9655,5.9574,5.9626,5.9634,5.9661,5.9701,5.9705,5.9668,5.9665,5.9736,5.9743,5.9752,5.9845,5.9773,5.9777,5.978,5.9984,5.9987,5.999,0,0,0,0,0,0,5.9523,5.9536,5.9648,5.9597,5.961,5.9631,5.9662,5.9664,5.9683,5.9708,5.9711,5.9685,5.9734,5.9745,5.9809,5.9847,5.978,5.9784,5.9981,5.9985,5.9989,6.0031,0,0,0,0,0,0,5.9519,5.9535,5.9563,5.9597,5.9613,5.9704,5.9664,5.9667,5.9692,5.9689,5.9725,5.9728,5.9733,5.9802,5.9814,5.9853,5.9788,5.9978,5.9983,5.9988,6.0026,6.0035,6.0043,0,0,0,0,0,5.9513,5.9572,5.9565,5.9579,5.9649,5.9706,5.9715,5.9719,5.9695,5.9724,5.9741,5.9727,5.9841,5.9809,5.9823,5.9863,5.9976,5.9981,5.9987,6.0022,6.0033,6.0043,0,0,0,0,0,0,5.9541,5.9576,5.9569,5.964,5.967,5.9702,5.9739,5.9731,5.9768,5.9764,5.9768,5.9776,5.9843,5.9859,5.9823,5.994,5.9905,5.9914,5.9927,5.9938,5.9946,5.9941,5.9792,0,0,0,0,0,5.9555,5.9598,5.9627,5.9687,5.9702,5.9718,5.9743,5.9744,5.9775,5.9788,5.9809,5.984,5.9883,5.9911,5.9952,6.0028,6.0037,6.0063,6.0072,6.0079,6.0087,6.0131,6.0144,6.0009,6.0009,6.0009,0,0,5.9585,5.961,5.9636,5.9693,5.9716,5.9762,5.9729,5.9777,5.9812,5.9795,5.9858,5.9875,5.991,5.9982,6.0014,5.9998,6.0126,6.0086,6.0092,6.0096,6.0138,6.0151,6.0162,6.0013,6.0012,6.0012,0,0,5.9664,5.9686,5.9739,5.9764,5.9801,5.9811,5.9824,5.9858,5.9869,5.9932,5.9922,5.9963,6.0036,6.0063,6.0086,6.0178,6.0167,6.0191,6.0237,6.028,6.029,6.03,6.0335,6.0347,6.0198,6.0198,6.0198,0,5.9696,5.9764,5.9768,5.9818,5.9845,5.9833,5.9888,5.9912,5.996,5.9979,5.9959,6.0054,6.0076,6.0155,6.0178,6.0196,6.0213,6.0187,6.0289,6.0298,6.0307,6.034,6.0353,6.0201,6.0201,6.02,6.02,0,5.9803,5.9851,5.989,5.9938,5.9968,6.002,6.0034,6.0064,6.0064,6.0077,6.0143,6.017,6.0218,6.0236,6.0235,6.0316,6.0305,6.0287,6.0252,6.0322,6.0354,6.0366,6.0205,6.0204,6.0203,6.0202,0,0,5.99,5.9951,5.9965,5.9988,6.0029,6.0066,6.0119,6.0166,6.0193,6.0227,6.0273,6.0337,6.0322,6.0348,6.035,6.0388,6.0462,6.0366,6.0367,6.0384,6.0556,6.057,6.0584,6.0456,6.0458,6.046,6.0553,0,5.9983,6.0076,6.0083,6.0167,6.0213,6.0204,6.025,6.0281,6.0296,6.0337,6.0352,6.0399,6.0374,6.039,6.0427,6.0445,6.0497,6.0438,6.05,6.0502,6.0492,6.06,6.0615,6.0701,6.0565,6.0567,6.0569,0,6.0092,6.013,6.022,6.0257,6.0276,6.0318,6.0363,6.0402,6.0438,6.0446,6.0477,6.0475,6.0531,6.0494,6.0573,6.0533,6.0559,6.0572,6.0575,6.0582,6.054,6.0611,6.0729,6.0743,6.0588,6.0586,6.0585,0,6.0155,6.023,6.0294,6.0313,6.0358,6.0388,6.0408,6.0441,6.047,6.051,6.0529,6.0574,6.0599,6.0635,6.0646,6.0618,6.0726,6.0689,6.0735,6.0735,6.0758,6.0757,6.0883,6.0773,6.0773,6.0772,6.0772,0,6.0248,6.0304,6.0324,6.0363,6.0426,6.0434,6.0496,6.0514,6.0545,6.0589,6.0583,6.0625,6.0636,6.068,6.0689,6.0754,6.0765,6.0774,6.0776,6.0775,6.0774,6.0793,6.0787,6.0776,6.0775,6.0774,6.0774,0,6.033,6.0345,6.0415,6.0452,6.0463,6.0508,6.054,6.0579,6.0593,6.0649,6.0662,6.0685,6.0737,6.0751,6.0813,6.0819,6.0896,6.0892,6.0884,6.0885,6.0931,6.0927,6.1074,6.1095,6.097,6.0971,6.0972,0,6.0389,6.0432,6.0474,6.0503,6.0525,6.0571,6.0602,6.0611,6.0643,6.0689,6.0723,6.0774,6.0815,6.0899,6.0921,6.0969,6.0967,6.1015,6.0974,6.0973,6.097,6.0968,6.0973,6.1023,6.1024,6.1025,6.1026,0,6.0492,6.0498,6.0541,6.0589,6.0625,6.0662,6.0698,6.0722,6.0737,6.0774,6.0827,6.0859,6.0923,6.0975,6.1024,6.1045,6.104,6.1039,6.1053,6.1053,6.1048,6.1054,6.0907,6.1036,6.1035,6.1034,6.1034,6.1033,6.0566,6.0605,6.0641,6.069,6.0719,6.0753,6.0792,6.0812,6.0857,6.091,6.0913,6.0972,6.1009,6.1074,6.1098,6.1145,6.1131,6.115,6.1155,6.116,6.1165,6.104,6.1154,6.1154,6.1153,6.1153,6.1153,0,6.0671,6.0694,6.0739,6.079,6.083,6.0821,6.0861,6.0894,6.0946,6.0981,6.1023,6.1086,6.1136,6.1164,6.1215,6.1247,6.1246,6.126,6.1258,6.1264,6.1174,6.1158,6.1261,6.1261,6.1261,6.126,6.126,6.126,6.073,6.0796,6.0807,6.0888,6.0911,6.0968,6.0992,6.1025,6.1053,6.1124,6.1166,6.1184,6.1216,6.127,6.1317,6.1324,6.1344,6.136,6.1366,6.1281,6.127,6.126,6.1245,6.1364,6.1364,6.1452,6.1453,6.1454]}]]